ASTRA 1G
1 25071U 97076A   03064.00000000  .00000111  00000-0  10000-3 0  3943
2 25071   0.0122 319.8851 0002995  65.1991 156.4370  1.00273184 19285
INMARSAT 3-F5
1 25153U 98006B   03072.67949981  .00000140  00000-0  10000-3 0  8565
2 25153   0.4626 353.0312 0003083  10.1485  77.3005  1.00274491 18735
HOT BIRD 4
1 25237U 98013A   03055.98151369  .00000074  00000-0  10000-3 0  3309
2 25237   0.0547 293.1775 0007524 338.0934 249.5459  1.00273950 18609
NOAA 15
1 25338U 98030A   03072.64101168  .00000251  00000-0  12731-3 0   389
2 25338  98.5473  94.1648 0009667 248.0421 111.9731 14.24256259251089
RESURS O1-N4
1 25394U 98043A   03072.89540655  .00000229  00000-0  11890-3 0  4698
2 25394  98.6287 150.3885 0002288  55.7690 304.3705 14.23887332242851
TMSAT
1 25396U 98043C   03073.22301063 -.00000043  00000-0  00000+0 0  8311
2 25396  98.6211 149.8571 0003447  74.4879 285.6684 14.23518917242891
TECHSAT 1B
1 25397U 98043D   03071.91803943 +.00000104 +00000-0 +65201-4 0 01599
2 25397 098.6178 147.4333 0002169 084.1327 276.0098 14.22965432242676
ASTRA 2A
1 25462U 98050A   03064.00000000  .00000141  00000-0  00000+0 0  5366
2 25462   0.0385 308.7109 0004824 280.8620 320.9573  1.00272094 16583
EUTELSAT W2
1 25491U 98056A   03070.93084832  .00000106  00000-0  00000+0 0  5875
2 25491   0.0256 287.8570 0003791  57.7426 174.6652  1.00273786 16264
HOT BIRD 5
1 25495U 98057A   03070.00000000  .00000146  00000-0  00000+0 0  5046
2 25495   0.0100   0.0000 0000100   0.0000 193.7470  1.00273841 16227
SEDSAT 1
1 25509U 98061B   03072.94090776  .00000694  00000-0  12734-3 0  8009
2 25509  31.4302  21.1791 0357364 146.9802 215.3679 14.27462080228655
PAN SAT
1 25520U 98064B   03072.17041140  .00003507  00000-0  17781-3 0  6473
2 25520  28.4587  73.2968 0006580 233.7833 126.2151 15.14008660241010
ISS (ZARYA)
1 25544U 98067A   03073.51473380  .00004695  00000-0  66282-4 0  7815
2 25544  51.6326 135.7287 0008104 327.0360 234.7189 15.58695319246235
ORSTED
1 25635U 99008B   03073.00477987  .00001172  00000-0  30491-3 0  8532
2 25635  96.4531  53.6354 0143544 254.8507 103.6773 14.44889714213327
SUNSAT
1 25636U 99008C   03071.97641671 +.00000583 +00000-0 +16133-3 0 06923
2 25636 096.4571 051.4652 0147401 264.7328 093.7034 14.42979198213048
UOSAT 12
1 25693U 99021A   03073.12218780  .00000414  00000-0  79048-4 0  7830
2 25693  64.5601 298.6950 0022532 315.1476  44.7787 14.76418122209733
FENGYUN 1C
1 25730U 99025A   03073.18341421  .00000009  00000-0  27961-4 0  7872
2 25730  98.6329  96.6966 0013738 297.7414  62.2364 14.11736444197964
ASTRA 1H
1 25785U 99033A   03064.00000000  .00000111  00000-0  10000-3 0  3748
2 25785   0.0122 319.8851 0002995  65.1991 156.4596  1.00273184 13641
TERRA
1 25994U 99068A   03073.27820474  .00000634  00000-0  15078-3 0  7825
2 25994  98.1931 149.1263 0000991  74.4274 285.7026 14.57097987172125
JAWSAT
1 26061U 00004A   03073.51696626  .00000821  00000-0  28991-3 0  7871
2 26061 100.2024 135.0226 0034963 211.2346 148.6758 14.37857127163979
OPAL
1 26063U 00004C   03073.18382779  .00000255  00000-0  10827-3 0  7406
2 26063 100.2070 132.0420 0036728 220.1320 139.7145 14.35492488163779
ASUSAT
1 26065U 00004E   03073.55843065  .00000286  00000-0  11908-3 0  7550
2 26065 100.2079 132.6408 0037114 219.8159 140.0297 14.35521560163820
GOES 11
1 26352U 00022A   03072.27054529 -.00000032  00000-0  10000-3 0   629
2 26352   0.1963 101.2821 0003003 219.5769 193.1924  1.00268207 10465
EUTELSAT W4
1 26369U 00028A   03070.87460649  .00000157  00000-0  00000+0 0  3604
2 26369   0.0436 355.4867 0002848 346.3950 178.1898  1.00275641 10268
FENGYUN 2B
1 26382U 00032A   03072.57211943 -.00000329  00000-0  00000+0 0  8117
2 26382   0.5097 288.7696 0001591 205.2766 347.0079  1.00265256  9943
EUTELSAT W1
1 26487U 00052A   03071.96880926  .00000000  00000-0  10000-3 0  3698
2 26487   0.0084 202.1742 0003716 117.6638 209.1199  1.00273149  9241
ASTRA 2B
1 26494U 00054A   03064.00000000  .00000141  00000-0  00000+0 0  2579
2 26494   0.0178 354.5658 0005000 302.8402 253.0807  1.00276704  9060
NOAA 16
1 26536U 00055A   03072.40052826  .00000575  00000-0  33902-3 0  2441
2 26536  98.9044  20.5195 0009876 239.6347 120.3847 14.11920555127372
SAUDISAT 1A
1 26545U 00057A   03073.48194332  .00001333  00000-0  19534-3 0  4249
2 26545  64.5595 318.4245 0050368 234.9676 124.6714 14.79049057132753
UNISAT
1 26547U 00057C   03072.44196746  .00002483  00000-0  33823-3 0  4432
2 26547  64.5582 323.7639 0057802 236.8039 122.7518 14.79853638132570
TIUNGSAT 1
1 26548U 00057D   03073.12981265  .00001760  00000-0  23960-3 0  4277
2 26548  64.5583 312.1332 0043738 234.5513 125.1476 14.81356242132852
SAUDISAT 1B
1 26549U 00057E   03072.79093205  .00001550  00000-0  22872-3 0  7156
2 26549  64.5506 324.7790 0055014 234.9227 124.6683 14.77983208132577
AMSAT OSCAR 40
1 26609U 00072B   03070.09237754 -.00000207  00000-0  10000-3 0  3155
2 26609   8.2556  60.3595 7949525 152.2353 297.2195  1.25597176 10842
GOES 12
1 26871U 01031A   03072.13619105 -.00000205  00000-0  10000-3 0  8628
2 26871   0.2719 276.1159 0002351  23.4474 192.5145  1.00358473  6061
PCSAT
1 26931U 01043C   03073.52967343  .00000402  00000-0  19097-3 0  4249
2 26931  67.0458 193.9255 0005288 271.1406  88.9088 14.29131443 75770
SAPPHIRE
1 26932U 01043D   03072.87498635  .00000224  00000-0  12050-3 0  4187
2 26932  67.0561 195.3088 0004253 249.2223 110.8422 14.29305098 75709
ENVISAT
1 27386U 02009A   03073.50718164  .00000008  00000-0  19211-4 0  9730
2 27386  98.5512 141.7192 0000959  69.4916 290.6371 14.32243396 54173
IDEFIX/ARIANE 42P
1 27422U 02021B   03072.86533564  .00000370  00000-0  16705-3 0  2540
2 27422  98.6924 151.9545 0013438  82.1841 278.0864 14.27984145 44783
FENGYUN 1D
1 27431U 02024B   03072.88355851  .00000154  00000-0  11324-3 0  2368
2 27431  98.7641 121.2348 0016280  58.7367 301.5395 14.09181779 42658
NOAA 17
1 27453U 02032A   03072.62363924  .00000348  00000-0  17327-3 0  3357
2 27453  98.7519 143.7089 0011074 292.8487  67.1520 14.23308826 37241
HOT BIRD 6
1 27499U 02038A   03054.87288413  .00000075  00000-0  10000-3 0   703
2 27499   0.0150 173.7812 0009015 197.5701 109.1063  1.00270140  1885
RUBIN 2
1 27605U 02058A   03072.62069882  .00000907  00000-0  16617-3 0   810
2 27605  64.5512 127.2377 0035309 103.3085 257.1948 14.71411959 12207
